Vertical_Velocity
-1 2 -0 4 7 -2 -2 -3 1 -1 -0 -1 5 0 -2 -0 3 2 3 3 -1 -1 -0 4 2 1 -0
-6 -9 -3 -2 0 0 -1 0 1 -3 9 0 5 6 1 5 0 2 3 4 4 2 1 -0 2 -1 -2
-7 -2 0 -4 -2 2 -0 14 0 4 5 7 1 3 -1 -0 1 -4 1 4 4 1 1 2 1 0 -2
1 -1 -1 2 1 2 1 4 2 7 4 1 -1 -1 -4 -5 -7 -2 1 -2 -1 1 -1 0 -0 1 0
5 3 -1 -2 -1 -1 2 1 -7 -5 -7 -4 -2 0 -3 -4 -2 2 -1 -1 -1 -1 -0 2 2 2 2
1 2 2 2 4 1 2 6 5 -12 7 -7 2 -5 -0 -4 -2 -0 -3 -2 -2 -1 0 -1 -3 -2 -1
1 -2 -2 -0 3 1 4 3 8 -5 -6 33 -15 2 -2 -10 -3 -6 -8 -4 -1 -4 -1 0 -2 -2 -4
-1 -0 0 -0 3 1 0 2 6 -4 -6 17 0 4 7 -10 -2 -6 -5 -1 -2 -1 -3 -1 -2 -4 -1
1 0 -0 -1 2 1 -1 -1 4 5 -17 -9 11 6 17 -2 -6 -6 -3 -3 -2 -0 -0 0 -0 -4 -2
4 4 2 0 -1 1 2 2 -4 18 -9 1 2 -17 9 20 -6 -14 -5 -9 -4 -3 -3 -1 -3 -5 -7
-3 -2 -3 -3 -3 -3 -4 0 1 -1 -6 -9 10 5 -11 -11 25 -11 -1 -4 -4 -5 -4 -3 -3 -3 -1
-3 -4 -3 -4 -4 -4 -5 -2 -4 -2 2 -6 -2 -2 -4 0 -2 2 -9 -8 -2 -4 -4 -4 -2 -2 -3
-1 -2 -1 -2 -3 0 -4 -0 -2 -4 -3 -2 -4 -2 -3 -3 -1 1 10 -3 -5 0 -3 1 -0 -0 -2
-0 -3 -3 -4 -5 -2 0 -1 -2 -4 -10 -3 -2 -2 3 -4 -4 0 -1 4 -8 -2 0 -2 0 2 -0
2 -0 -3 -0 -5 -4 -2 -1 -2 3 -0 -7 -3 3 -1 1 1 -1 0 -2 0 -2 -1 -1 0 -1 -0
-1 -2 -3 -2 -3 -5 -2 0 1 -1 -2 -0 -1 -2 -4 -3 3 -1 0 -1 -0 1 1 -0 0 0 2
-4 -3 -1 -4 -2 -3 -1 0 -2 -1 -4 1 -2 0 -1 -1 -1 1 -0 -0 -0 0 0 0 0 -3 1
Height
5649 5649 5647 5645 5645 5645 5645 5644 5643 5643 5641 5640 5638 5637 5637 5637 5636 5637 5639 5640 5641 5641 5641 5641 5642 5642 5642
5637 5637 5636 5633 5632 5631 5633 5632 5631 5629 5629 5626 5626 5625 5625 5624 5626 5627 5628 5628 5628 5628 5628 5628 5628 5628 5628
5626 5625 5624 5622 5621 5620 5621 5622 5619 5619 5617 5614 5614 5612 5612 5613 5615 5615 5615 5615 5615 5615 5614 5614 5614 5613 5613
5617 5614 5614 5613 5612 5611 5610 5607 5606 5606 5604 5603 5603 5602 5602 5602 5603 5603 5602 5601 5600 5600 5600 5599 5599 5597 5596
5607 5606 5605 5604 5604 5604 5603 5600 5596 5595 5595 5593 5592 5591 5589 5588 5588 5587 5585 5585 5584 5583 5582 5581 5580 5579 5578
5599 5598 5597 5596 5594 5593 5591 5589 5586 5584 5584 5578 5578 5574 5572 5570 5569 5568 5566 5564 5563 5563 5562 5560 5558 5557 5556
5590 5589 5587 5585 5583 5580 5578 5575 5572 5568 5569 5565 5560 5557 5553 5550 5549 5547 5546 5545 5544 5542 5541 5539 5536 5535 5533
5579 5577 5575 5572 5569 5566 5563 5559 5555 5549 5550 5549 5541 5539 5533 5529 5527 5525 5524 5523 5522 5520 5519 5516 5513 5511 5511
5567 5564 5561 5558 5554 5550 5546 5543 5539 5531 5528 5528 5522 5520 5514 5505 5501 5500 5500 5499 5497 5495 5493 5491 5488 5487 5486
5555 5551 5546 5542 5538 5534 5529 5524 5519 5515 5505 5507 5500 5494 5498 5485 5476 5473 5473 5471 5470 5469 5467 5465 5462 5460 5459
5539 5535 5530 5525 5520 5514 5508 5503 5497 5490 5483 5480 5478 5470 5467 5467 5456 5448 5448 5444 5443 5441 5439 5438 5435 5431 5430
5524 5518 5512 5506 5499 5491 5484 5476 5468 5463 5457 5450 5448 5443 5439 5437 5435 5424 5422 5419 5418 5415 5413 5411 5409 5407 5406
5506 5499 5492 5483 5475 5467 5458 5450 5441 5434 5431 5427 5423 5420 5416 5413 5413 5406 5406 5398 5397 5395 5393 5392 5390 5390 5390
5486 5478 5470 5461 5452 5446 5439 5433 5427 5419 5413 5411 5408 5405 5401 5395 5393 5390 5387 5384 5381 5380 5378 5377 5377 5376 5375
5470 5461 5452 5445 5438 5433 5427 5421 5416 5411 5403 5397 5393 5390 5385 5382 5378 5375 5373 5371 5370 5369 5367 5367 5366 5366 5368
5453 5447 5441 5435 5429 5422 5417 5410 5404 5397 5392 5387 5382 5377 5372 5369 5367 5364 5362 5361 5360 5360 5360 5359 5361 5363 5364
5442 5437 5431 5424 5418 5412 5405 5399 5393 5387 5381 5376 5371 5367 5363 5359 5357 5356 5354 5354 5354 5354 5355 5356 5358 5360 5363